sat.trackr.live / text

‹ back to catalog

STARLINK-3960

NORAD 52659 · 2022-053D

PAYLOAD ACTIVE UNKNOWN

§ Identity

Operator
Country
US
Launch date
2022-05-18
Launch site
AFETR
Launch vehicle
Mass (kg)
RCS (m²)

Purposes: comms

External: N2YO · Heavens-Above · Gunter

§ Orbital elements

Epoch: 2026-09-19T06:27:54.476064Z

Period
93.90 min
Inclination
53.1607°
Eccentricity
0.0001113
Mean motion
15.33550351 rev/d
Perigee alt
464.5 km
Apogee alt
466.0 km
Semi-major
6,843.4 km
B*
2.0307e-5
RAAN
353.4526°
Arg perigee
72.0319°
Mean anomaly
288.0804°
Rev number
24,060

§ Raw data

STARLINK-39601 52659U 22053D   26262.26938051  .00000295  00000+0  20307-4 0  99922 52659  53.1607 353.4526 0001113  72.0319 288.0804 15.33550351240600

JSON: /api/v1/satellites/52659 · /tle

For live sub-satellite position, see the globe view (requires WebGL).

§ Visibility from observer

Set your observer location to see the next 7 days of passes ≥ 10°. The values pass through the URL so the page stays shareable.

No JS? Fill the form by hand. The geolocation button needs JavaScript.